THORAD AGENA D DEB, 42551

Orbit data source: Space-Track

THORAD AGENA D DEB, 42551 is space debris in SSO originally from a launch on Wed, 08 Apr 1970 UTC launched from the Air Force Western Test Range (AFWTR). Debris objects in space refer to the collection of defunct objects orbiting the Earth. Examples of debris include non-operational satellites, rocket bodies, and fragments generated from explosions, collisions, or faulty payload assembly.

Loading next visibility...
Identifier
42551, 1970-025TH
Orbit
SSO
Country
Flag of USUS
Related business
Manufacturer
Unknown
Mission
Spacecraft
Bus & Motor
Unknown
Mass
Unknown
Launch date (UTC)
1970-04-08 (56 years ago)
Launch vehicle
Unknown
Launch site
Air Force Western Test Range (AFWTR)
Object type
Payload
Rocket body
Debris
Shape & HBR
Unknown shape, 0.1 m
Radar Cross Section
Small (<0.1 m²)

Expand to show TLE details & history
Last TLE update: 5 days ago

TLE from 5 days ago
0 THORAD AGENA D DEB
1 42551U 70025TH  26252.51054007  .00001335  00000-0  90636-3 0  9999
2 42551  99.9736 334.2031 0013470 184.0195 176.0861 14.02159004651457
Epoch: 2026-09-09T12:15Z
TLE epoch observation values (Epoch: 2026-09-09T12:15:10.662Z)
Latitude
-0.00002°
Longitude
161.84712°
Altitude
898.94 km
Speed
7.398 km/s
True Right ascension
22h 16m 48s
True Declination
0° 00' 00"
Sunlit
Object was in full shadow at epoch
Visualization orbit readout
Latitude
Unknown
Longitude
Unknown
Altitude
Unknown
Speed
Unknown
Apparent Right ascension
Unknown
Apparent Declination
Unknown
Sunlit
N/A
Visualization observer readout
Local Sidereal Time
02:23:57
Azimuth
Unknown
Elevation
Unknown
Doppler factor
Unknown
Orbital elements
Apogee altitude
893.357 km
Perigee altitude
873.794 km
Semi-major axis
7,261.712 km
Eccentricity
0.00135
Inclination
99.9736°
RAAN
334.2031°
Arg. of periapsis
184.0195°
True anomaly
176.09662°
Mean anomaly
176.0861°
Eccentric anomaly
176.09136°
Mean motion
3.50739 °/min
Orbital period
102.64 mins
BSTAR
0.00090636
Loading maneuver chart data...
Computing Atmospheric mass density...

Documentation

Showing up to 5 results
|